Tradescott818
Level Icon L2 Icon Gift Icon

Followers 59
Posts 3,446
Boards Moderated 0
Alias Born 05/15/2013

Tradescott818
Level Icon L2 Icon Gift Icon

Message

Tradescott818 My Stocks

Ticker Board News Price Change Chg% Added
GALT Galectin Therapeutics Inc. 2.07 0.04 1.97% 01/07/2015
JDST Direxion Daily Junior Gold Miners Index Bear 3X Shares 11.3604 -0.6396 -5.33% 12/11/2014
JNUG Direxion Daily Junior Gold Miners Index Bull 2X Shares 38.0 1.79 4.94% 12/11/2014
STRP Straight Path Communications Inc. 12/11/2014
RADA Rada Electronics Industries Inc. 11.05 0.05 0.45% 12/11/2014
LOCO El Pollo Loco Holdings, Inc. 9.78 0.16 1.66% 12/11/2014
GPRO GoPro, Inc. 6.86 0.15 2.24% 12/11/2014
DDD 3D Systems Corp. 12.5 0.38 3.14% 12/08/2014
My DDD Pitch: Buy
NTLS NTELOS Holdings Corp 12/03/2014
JRJC China Finance Online Co Ltd 3.99 0.0 0.00% 12/02/2014
IBIO iBio, Inc. 0.281 0.0015 0.54% 12/02/2014
USLVF VelocitySharesTM 3x Long Silver 37.36 0.0 0.00% 12/02/2014
CODE Spansion Inc. 0.035 0.0 0.00% 12/02/2014
LAKE Lakeland Industries, Inc. 15.62 0.09 0.58% 12/02/2014
HABT The Habit Restaurants, Inc. 0 0 0.00% 12/02/2014
VNCE Vince Holding Corp 7.64 0.14 1.87% 12/02/2014
DGLY Digital Ally Inc. 0.91 0.04 4.60% 12/02/2014
STEV Stevia Corp. 0.007291 -0.000093 -1.26% 09/17/2014
CYTK Cytokinetics, Inc. 50.3 0.83 1.68% 09/12/2014
HGSH China Holdings Real Estate 3.02 0.0 0.00% 09/02/2014
INVE Identive Group, Inc. 16.38 -0.25 -1.50% 09/02/2014
AEZS AEterna Zentaris Inc. 4.99 0.02 0.40% 09/02/2014
RS Legacy Corp. (fka RSHCQ) 09/02/2014
LLLI Lamperd Less Lethal Inc 0.0078 0.0008 11.43% 08/25/2014
VPOR Vapor Group Inc. 0.000001 0.0 0.00% 08/25/2014
GWPH GW Pharmaceuticals Plc ADS 218.96 0.0 0.00% 08/25/2014
Ominto Inc. (fka OMNT) 08/25/2014
ACRX AcelRx Pharmaceuticals, Inc. 0.265 -0.0476 -15.23% 08/18/2014
The Digital Dev. Group Corp. (fka DIDG) 08/15/2014
FWDG FutureWorld Corp. 0.000001 0.0 0.00% 08/15/2014
ZNGA Zynga, Inc. 8.18 0.0 0.00% 08/11/2014
Walter Industries, Inc. (fka WLTGQ) 08/11/2014
SUNW SunWorks Inc 4.16 0.56 15.56% 08/11/2014
PXYN Praxsyn Corp. 0.000001 0.0 0.00% 08/11/2014
MINE Minerco Inc. 0.000001 0.0 0.00% 08/11/2014
MBLY Mobileye N.V. 08/07/2014
ELTP Elite Pharmaceuticals Inc 0.0425 0.001 2.41% 08/07/2014
BCOV Brightcove Inc. 6.83 0.09 1.34% 08/07/2014
COUP Coupons.com Inc. 75.6 2.6 3.56% 08/07/2014
ET Energy Transfer LP 11.69 0.2 1.74% 08/07/2014
THOR Thoratec Corporation 0 0 0.00% 08/07/2014
Lime Energy Co. (fka LIME) 08/07/2014
HSOL Hanwha Solarone CO. Ltd 08/06/2014
GRPN Groupon Inc. 12.5 -0.34 -2.65% 08/06/2014
CRMBQ Crumb''s Bake Shop, Inc. 0.0001 0.0 0.00% 08/05/2014
American Apparel, Inc. (fka APPCQ) 08/05/2014
HEMP Hemp, Inc. 0.00115 0.00005 4.55% 08/05/2014
SIAF Sino Agro Food Inc 0.001 0.0 0.00% 08/05/2014
SYF Synchrony Financial 36.14 0.03 0.08% 08/01/2014
FSYS Fuel Systems Solutions, Inc. 07/31/2014
* Market data is delayed 15-20 minutes.